Chihuahua, Mexico

8:04 AM MST on November 19, 2017 (GMT -0700)
Gen Div P A Roberto Fierro

Weather History for MMCU - October, 2012

Change the Weather History Date:

Sunday, October 14, 2012

  Actual Average Record
Temperature  
Mean Temperature 64 °F -  
Max Temperature 78 °F 79 °F 89 °F (1998)
Min Temperature 51 °F 48 °F 39 °F (1997)
Growing Degree Days 14 (Base 50)    
Moisture  
Dew Point 34 °F    
Average Humidity 27    
Maximum Humidity 57    
Minimum Humidity 14    
Precipitation  
Precipitation 0.00 in - - ()
Sea Level Pressure  
Sea Level Pressure 30.09 in    
Wind  
Wind Speed 5 mph ()    
Max Wind Speed 12 mph    
Max Gust Speed -    
Visibility 8.5 miles    
Events      
Averages and records for this station are not official NWS values.
T = Trace of Precipitation, MM = Missing Value Source: Averaged Metar Reports

Daily Weather History Graph

Daily Weather History Graph

Search for Another Location

Airport or City:

Trip Planner

Search our weather history database for the weather conditions in past years. The results will help you decide how hot, cold, wet, or windy it might be!

Date:

Astronomy

Oct. 14, 2012 Rise Set
Actual Time 7:04 AM MDT 6:34 PM MDT
Civil Twilight 6:40 AM MDT 6:58 PM MDT
Nautical Twilight 6:13 AM MDT 7:25 PM MDT
Astronomical Twilight 5:45 AM MDT 7:53 PM MDT
Moon 6:07 AM MDT (10/14) 5:57 PM MDT (10/14)
Length of Visible Light 12h 17m
Length of Day
11h 30m
Waning Crescent, 1% of the Moon is Illuminated
Oct 14
Waning Crescent
Oct 15
New
Oct 21
First Quarter
Oct 29
Full
Nov 6
Last Quarter

Hourly Weather History & Observations

Time (MDT) Temp. Windchill Dew Point Humidity Pressure Visibility Wind Dir Wind Speed Gust Speed Precip Events Conditions
5:50 AM 52 °F - 41 °F 55% 29.98 in 1 mi Calm Calm - -  
6:40 AM 48.2 °F - 32.0 °F 54% 30.04 in 10.0 mi SSE 9.2 mph - N/A   Clear
7:40 AM 46.4 °F 42.9 °F 32.0 °F 57% 30.26 in 10.0 mi SSE 6.9 mph - N/A   Clear
8:40 AM 60.8 °F - 32.0 °F 34% 30.03 in 10.0 mi Calm Calm - N/A   Partly Cloudy
8:50 AM 66 °F - 38 °F 24% 30.07 in 6 mi ENE 4.5 mph - -  
9:40 AM 64.4 °F - 32.0 °F 30% 30.29 in 10.0 mi Calm Calm - N/A   Partly Cloudy
10:40 AM 71.6 °F - 32.0 °F 23% 30.28 in 10.0 mi North 5.8 mph - N/A   Scattered Clouds
11:40 AM 73.4 °F - 32.0 °F 22% 30.02 in 10.0 mi North 9.2 mph - N/A   Scattered Clouds
11:50 AM 76 °F - 36 °F 14% 30.02 in 6 mi ENE 4.5 mph - -  
12:40 PM 75.2 °F - 32.0 °F 21% 30.25 in 10.0 mi North 11.5 mph - N/A   Scattered Clouds
1:40 PM 77.0 °F - 32.0 °F 19% 30.22 in 10.0 mi NNW 10.4 mph - N/A   Mostly Cloudy
2:40 PM 78.8 °F - 32.0 °F 18% 29.97 in 10.0 mi North 6.9 mph - N/A   Mostly Cloudy
3:40 PM 78.8 °F - 32.0 °F 18% 30.17 in 10.0 mi North 6.9 mph - N/A   Mostly Cloudy
4:40 PM 75.2 °F - 33.8 °F 22% 30.15 in 10.0 mi NW 6.9 mph - N/A   Mostly Cloudy
5:40 PM 77 °F - 36 °F 14% 29.82 in 6 mi North 4.5 mph - -   Mostly Cloudy
5:40 PM 73.4 °F - 33.8 °F 23% 29.99 in 10.0 mi North 5.8 mph - N/A   Mostly Cloudy
6:40 PM 69.8 °F - 32.0 °F 25% 30.17 in 10.0 mi NE 6.9 mph - N/A   Overcast
7:40 PM 69.8 °F - 32.0 °F 25% 30.19 in 10.0 mi ENE 8.1 mph - N/A   Mostly Cloudy
8:30 PM 68 °F - 40 °F 24% 29.85 in 1 mi NNE 2.2 mph - -   Scattered Clouds
8:40 PM 66.2 °F - 32.0 °F 28% 30.00 in 10.0 mi East 8.1 mph - N/A   Overcast